Location: Elaina
(34.1445°N, 106.7742°W)
Time: 01:56:29
(UTC+00:00)

Cosmos 1898 Rocket - Pass Details

Date: 11 December 2025
Orbit: 749 x 779 km, 74.0° (Epoch: 24 January)

Event Time Altitude Azimuth Distance (km) Brightness Sun altitude
Exits shadow 12:14:02 48° 308° (NW) 1,007 3.7 -21.9°
Maximum altitude 12:15:15 61° 256° (WSW) 869 3.4 -21.7°
Drops below altitude 10° 12:20:25 10° 177° (S) 2,313 6.2 -20.6°
Sets 12:22:49 0° 174° (S) 3,240 7.0 -20.1°
